Hourly Data Report for May 26, 2006

TORONTO CITY
ONTARIO

43°40'00.000" N
79°24'00.000" W
112.50 m
6158355
71508
XTO

Download Data

Hourly Data (May 2006)
Hourly Data Report for May 26, 2006
TIME
LST
Temp Definition
°C
Dew Point Definition
°C
Rel Hum Definition
%
Precip. Amount Definition
mm

Wind Dir Definition
10's deg

Wind Spd Definition
km/h
Visibility Definition
km
Stn Press Definition
kPa
Hmdx Definition


Wind Chill Definition


Weather Definition


00:00 16.0 11.0 72   LegendMM LegendMM   98.95     LegendNANA
01:00 15.5 10.6 73   LegendMM LegendMM   98.87     LegendNANA
02:00 15.2 10.6 74   LegendMM LegendMM   98.82     LegendNANA
03:00 15.2 11.2 77   LegendMM LegendMM   98.79     LegendNANA
04:00 14.7 12.0 84   LegendMM LegendMM   98.75     LegendNANA
05:00 15.0 12.6 86   LegendMM LegendMM   98.80     LegendNANA
06:00 14.9 13.5 91   LegendMM LegendMM   98.82     LegendNANA
07:00 14.5 13.6 94   LegendMM LegendMM   98.81     LegendNANA
08:00 14.6 14.0 96   LegendMM LegendMM   98.80     LegendNANA
09:00 15.0 14.5 97   LegendMM LegendMM   98.77     LegendNANA
10:00 16.2 15.7 97   LegendMM LegendMM   98.74     LegendNANA
11:00 16.4 15.9 97   LegendMM LegendMM   98.74     LegendNANA
12:00 16.8 16.2 96   LegendMM LegendMM   98.72     LegendNANA
13:00 17.6 16.5 93   LegendMM LegendMM   98.71     LegendNANA
14:00 18.1 16.8 92   LegendMM LegendMM   98.70     LegendNANA
15:00 19.4 16.8 85   LegendMM LegendMM   98.72     LegendNANA
16:00 18.8 16.8 88   LegendMM LegendMM   98.74     LegendNANA
17:00 19.2 16.8 86   LegendMM LegendMM   98.76     LegendNANA
18:00 18.8 16.6 87   LegendMM LegendMM   98.83     LegendNANA
19:00 18.7 16.4 86   LegendMM LegendMM   98.90     LegendNANA
20:00 17.5 15.4 87   LegendMM LegendMM   98.99     LegendNANA
21:00 16.5 15.2 92   LegendMM LegendMM   99.06     LegendNANA
22:00 16.2 14.7 91   LegendMM LegendMM   99.11     LegendNANA
23:00 16.0 15.2 95   LegendMM LegendMM   99.17     LegendNANA

Notes on Data Quality.

Legend

  • E = Estimated
  • M = Missing
  • NA = Not Available*
  • [empty] = Indicates an unobserved value
Date modified: